Yellowstone National Park, WY

1:59 AM MST on February 12, 2016 (GMT -0700)
Yellowstone | | Change Station
CLOSE
Current Station
Airport
Location: Yellowstone,
Elevation: 7835 ft
Nearby Weather Stations

Elev 7835 ft 44.54 °N, 110.42 °W | Updated 3 minutes ago

Ice Pellets
Ice Pellets
29 °F
Feels Like 29 °F
N
0
Wind Variable Wind from North
Gusts mph

Today
High -- | Low -- °F
--% Chance of Precip.
Yesterday
High -- | Low -- °F
Precip. -- in
Pressure 30.32 in
Visibility -9999.0 miles
Clouds
Dew Point 27 °F
Humidity 92%
Rainfall 0.01 in
Snow Depth Not available.
7:27 AM 5:45 PM
Waxing Crescent, 19% visible
METAR KP60 120856Z AUTO 00000KT M02/M03 A3035 RMK AO1 SLP267 P0001 60001 T10171028 58004 $
Pressure 30.32 in
Visibility -9999.0 miles
Clouds
Dew Point 27 °F
Humidity 92%
Rainfall 0.01 in
Snow Depth Not available.
7:27 AM 5:45 PM
Waxing Crescent, 19% visible
METAR KP60 120856Z AUTO 00000KT M02/M03 A3035 RMK AO1 SLP267 P0001 60001 T10171028 58004 $

10-Day Weather Forecast

Almanac

Astronomy

Feb. 12, 2016 Rise Set
Actual Time
Civil Twilight
Nautical Twilight
Astronomical Twilight
Moon
Length of Visible Light
Length of Day
Tomorrow will be .
, % of the Moon is Illuminated

Today's Extremes

State Highs State Lows

Community

WunderPhotos

Upload Photos

1,892,284 photos uploaded!

WunderBlog® & News

Nearby

Air Quality

  Air Quality AQ Index Pollutant
Not available.

Snow Depth

Station Depth Elevation

Earthquake Activity

City Distance Mag. Time & Date
Minimum magnitude displayed is 2.5.

Coastal Water Temperatures

Place Temperature

Stations

Nearby Weather Stations

Station Location Temp. Windchill Dew Point Humidity Wind Precip. Elev Updated Type
                   

Watches & Warnings

There are currently no watches in effect.